Showing default

SNAPPY, 69014

Orbit data source: Space-Track

SNAPPY, 69014 is an American payload satellite in SSO that was launched on Sun, 03 May 2026 UTC via an FALCON 9 launch vehicle from the Air Force Western Test Range (AFWTR). Payload-class satellites include a variety of spacecraft equipped with specific instruments for various scientific and technological missions. These include communications satellites like Starlink; space stations such as the ISS; scientific satellites like the Hubble; Earth observation satellites from companies like Planet Labs, Umbra, and HawkEye 360; GPS; miniature CubeSats for education and research; and military/defense satellites.

Loading next visibility...
Identifier
69014, 2026-100AL
Orbit
SSO
Country
Flag of USUS
Related business
Manufacturer
NanoAvionics
Mission
Operational Commercial Technology
Bus & Motor
CUBESAT 3U, Unknown motor
Mass
5 kg wet, 5 kg dry
Launch date (UTC)
2026-05-03 (5 months ago)
Launch vehicle
FALCON 9
Launch site
Air Force Western Test Range (AFWTR)
Object type
Payload
Rocket body
Debris
Shape & HBR
Box, 0.2 m
Radar Cross Section
0.035 m², Medium (>0.1 m² and < 1m²)

Expand to show TLE details & history
Last TLE update: 22 hours ago

TLE from 22 hours ago
0 SNAPPY
1 69014U 26100AL  26265.66711465  .00002753  00000-0  12425-3 0  9990
2 69014  97.3926 161.9166 0007756  78.8305 281.3803 15.21800844 21634
Epoch: 2026-09-22T16:00Z
TLE epoch observation values (Epoch: 2026-09-22T16:00:38.705Z)
Latitude
-0.00001°
Longitude
-79.77397°
Altitude
502.453 km
Speed
7.614 km/s
True Right ascension
10h 47m 39s
True Declination
0° 00' 00"
Sunlit
Object was in daylight at epoch
Visualization orbit readout
Latitude
Unknown
Longitude
Unknown
Altitude
Unknown
Speed
Unknown
Apparent Right ascension
Unknown
Apparent Declination
Unknown
Sunlit
N/A
Visualization observer readout
Local Sidereal Time
07:32:17
Azimuth
Unknown
Elevation
Unknown
Doppler factor
Unknown
Orbital elements
Apogee altitude
502.704 km
Perigee altitude
492.039 km
Semi-major axis
6,875.509 km
Eccentricity
0.00078
Inclination
97.3926°
RAAN
161.9166°
Arg. of periapsis
78.8305°
True anomaly
281.29315°
Mean anomaly
281.3803°
Eccentric anomaly
281.33673°
Mean motion
3.80703 °/min
Orbital period
94.56 mins
BSTAR
0.00012425
Loading maneuver chart data...
Computing Atmospheric mass density...
Loading historical data...
Loading historical data...
Loading historical data...
Loading historical data...
Loading historical data...
Loading historical data...
Loading historical data...

Documentation

Showing up to 5 results
|